CDT,Max TemperatureF,Mean TemperatureF,Min TemperatureF,Max Dew PointF,MeanDew PointF,Min DewpointF,Max Humidity, Mean Humidity, Min Humidity, Max Sea Level PressureIn, Mean Sea Level PressureIn, Min Sea Level PressureIn, Max VisibilityMiles, Mean VisibilityMiles, Min VisibilityMiles, Max Wind SpeedMPH, Mean Wind SpeedMPH, Max Gust SpeedMPH,PrecipitationIn, CloudCover, Events, WindDirDegrees
2012-9-1,92,85,77,79,76,73,94,75,56,30.08,30.01,29.97,10,10,2,32,9,36,0.16,2,Rain-Thunderstorm,146
2012-9-2,96,87,77,79,75,70,94,70,46,30.05,30.00,29.95,10,10,7,21,10,26,0.00,1,,146
2012-9-3,95,87,78,79,76,72,91,70,49,30.00,29.96,29.90,10,10,7,22,12,30,0.00,2,,152
2012-9-4,95,88,81,77,74,70,91,70,49,29.96,29.92,29.87,10,10,9,21,12,30,0.00,1,,151
2012-9-5,96,87,77,77,75,72,97,71,45,29.91,29.87,29.82,10,10,10,21,11,30,0.00,1,,154
2012-9-6,97,87,77,78,74,70,97,70,43,29.95,29.89,29.85,10,10,6,21,10,26,0.00,1,,142
2012-9-7,96,86,76,78,74,72,97,71,45,29.92,29.86,29.81,10,10,7,21,10,25,0.00,1,,157
2012-9-8,99,87,74,78,73,66,100,69,38,29.97,29.89,29.86,10,9,2,18,6,30,0.00,0,,148
2012-9-9,92,82,72,76,72,66,94,73,52,30.06,30.01,29.96,10,10,6,21,8,28,0.05,3,Rain-Thunderstorm,9
2012-9-10,91,79,67,68,65,61,93,66,38,30.06,30.02,29.98,10,10,10,18,7,24,0.00,0,,25
2012-9-11,96,83,69,76,69,66,90,65,39,30.02,29.98,29.94,10,10,10,17,6,22,0.00,1,,103
2012-9-12,95,86,77,77,74,72,94,72,49,30.01,29.97,29.91,10,10,10,25,10,31,0.00,1,,155
2012-9-13,91,82,72,76,73,70,94,72,49,30.08,30.01,29.94,10,10,2,29,6,35,0.31,3,Rain-Thunderstorm,155
2012-9-14,90,82,73,74,71,67,94,72,50,30.10,30.05,30.01,10,10,10,17,7,24,T,2,Rain-Thunderstorm,33
2012-9-15,91,83,74,73,72,70,100,78,56,30.11,30.06,30.01,10,10,8,20,9,24,0.03,4,Rain,350
2012-9-16,92,83,73,74,72,70,93,73,52,30.04,29.97,29.88,10,10,10,14,5,18,0.00,4,,1
2012-9-17,95,83,71,74,71,67,94,68,41,29.92,29.86,29.77,10,9,2,17,6,21,0.00,2,,3
2012-9-18,94,84,73,77,73,68,94,73,52,30.01,29.92,29.85,10,10,7,22,7,29,T,2,,67
2012-9-19,94,83,71,70,68,66,93,72,50,30.08,30.02,29.98,10,10,10,16,6,21,T,2,Rain,22
2012-9-20,93,81,68,72,65,54,100,64,28,30.04,30.00,29.95,10,10,7,16,5,21,0.00,0,,28
2012-9-21,93,79,65,66,62,56,93,62,30,29.99,29.95,29.90,10,10,10,15,5,18,0.00,0,,34
2012-9-22,94,81,68,73,69,65,90,68,46,30.07,30.00,29.96,10,10,10,16,5,23,0.00,1,,42
2012-9-23,92,82,72,75,73,70,94,75,56,30.13,30.09,30.04,10,10,1,23,3,33,0.42,2,Rain,72
2012-9-24,92,82,71,75,71,68,100,74,47,30.12,30.06,30.00,10,10,10,15,7,21,T,0,,84
2012-9-25,92,82,72,73,71,68,87,68,49,30.04,29.98,29.92,10,10,10,21,9,28,0.00,1,,128
2012-9-26,93,85,77,76,73,72,91,74,56,29.98,29.94,29.89,10,10,10,18,9,25,T,1,,124
2012-9-27,94,86,77,76,74,71,91,72,52,30.01,29.96,29.91,10,10,10,18,9,23,0.00,2,,131
2012-9-28,87,82,76,78,75,73,94,80,65,29.99,29.93,29.85,10,8,0,22,8,31,1.15,3,Fog-Rain,138
2012-9-29,93,85,76,78,76,70,97,73,49,29.88,29.81,29.71,10,10,9,28,13,36,1.17,1,,169
2012-9-30,91,81,71,77,68,62,84,63,41,29.88,29.81,29.76,10,8,1,25,10,33,0.47,3,Rain-Thunderstorm,316